星链-2225 (STARLINK-2225 )

导读 | 星芒AI

STARLINK-2225 是 SpaceX Starlink 项目中的一颗低轨通信卫星,属于第二代 Starlink 卫星群。该卫星旨在为全球用户提供高速、低延迟的互联网服务,尤其服务于偏远和网络基础设施薄弱的地区。它采用先进推进系统和激光通信技术,以提高效率和减少空间碎片。STARLINK-2225 于 2023 年发射,是 SpaceX 扩展其全球宽带网络计划的一部分。

基本信息
目录编号:
48574
目录名称:
STARLINK-2225
国际标识:
2021-041X
轨道中心:
EARTH
卫星名称:
星链-2225
卫星全名:
星链-2225 (STARLINK-2225 )
卫星状态:
在轨 (已飞行1677 天)
发射日期:
2021-05-15 UTC
国别 :
美国 (US)
星等 :
--
轨道信息
数据来源 国际轨道数据 AOE轨道数据
星历时间 2025-12-15T23:24:33+0800
1天前
查看轨道信息
2025-12-16T10:00:00+0800
22小时前
查看轨道信息
半长轴 6925.349km 6925.314km
偏心率 0.0001308 0.0001484
轨道倾角 53.056° 53.055°
近地点辐角 91.950° 81.163°
升交点赤经 119.007° 117.026°
平近点角 268.164° 153.419°
近地点 546.308km 546.151km
远地点 548.12km 548.207km
周期 95.592分钟 95.591分钟
每日圈数 15.064 15.064116
详细信息
固有亮度:
5
最大亮度:
2.5
卫星平台:
Starlink V1.0
覆盖范围:
全球
运营商:
太空探索技术公司
运营商所在国:
美国
制造商(研发单位):
太空探索技术公司
制造商所在国:
美国
使用方式:
暂无
卫星简介
星链(Starlink)计划是由太空探索技术公司(SpaceX)提出的一个巨型低轨卫星互联网星座项目,计划在2019年至2024年间在太空搭建由约1.2万颗卫星组成的“星链”网络,其中1584颗将部署在地球上空550千米处的近地轨道,并从2020年开始工作。该卫星仍在工作。
2D轨道图
3D轨道图
轨道高度分析图
轨道倾角分析图
轨道综合分析图
查看轨道综合分析图